Regional Weather Roundup
Issued by NWS Sioux Falls, SD

Home | Current Version | Previous Version | Text Only | Print | Product List | Glossary Off
Versions: 1 2 3 4 5 6 7 8 9 10 11 12 13 14 15 16 17 18 19 20 21 22 23 24 25 26 27 28 29 30 31 32 33 34 35 36 37 38 39 40 41 42 43 44 45 46 47 48 49 50

000
ASUS43 KFSD 170802
RWRFSD

WEATHER ROUNDUP FOR SE SOUTH DAKOTA/SW MINNESOTA/NW IOWA
NATIONAL WEATHER SERVICE SIOUX FALLS SD
200 AM CST FRI NOV 17 2017

NOTE: "FAIR" INDICATES FEW OR NO CLOUDS BELOW 12,000 FEET WITH NO
SIGNIFICANT WEATHER AND OR OBSTRUCTIONS TO VISIBILITY.


SDZ038>040-050-052>070-170900-
SOUTHEAST SOUTH DAKOTA

CITY           SKY/WX    TMP DP  RH WIND       PRES   REMARKS
BROOKINGS      CLOUDY    37  28  70 S21       29.60F
CHAMBERLAIN    CLOUDY    48  37  64 W3        29.50S
HURON          CLOUDY    42  31  64 S17G30    29.51F
MADISON        FAIR      37  32  81 S25G33    29.58F
MITCHELL       CLOUDY    43  32  65 S16       29.55F
SIOUX FALLS    PTCLDY    40  30  67 S13G25    29.64F
WINNER         FAIR      51  36  56 S17       29.50F
YANKTON        CLOUDY    37  30  75 E8        29.64F
$$

MNZ071-072-080-081-089-090-097-098-170900-
SOUTHWEST MINNESOTA

CITY           SKY/WX    TMP DP  RH WIND       PRES   REMARKS
FAIRMONT       CLOUDY    33  28  81 S23G30    29.80F WCI  21
JACKSON        CLOUDY    34  28  80 SE17G30   29.75F WCI  23
LUVERNE        CLOUDY    36  28  75 S15G22    29.67F
MARSHALL       CLOUDY    38  28  67 S25G33    29.61F
MONTEVIDEO     CLOUDY    36  28  75 S15G21    29.65F
PIPESTONE      CLOUDY    36  28  75 S22       29.62F
REDWOOD FALLS  CLOUDY    35  27  72 SE22G31   29.71F WCI  23
WINDOM           N/A     37  21  52 SE23G30   29.71F
WORTHINGTON    CLOUDY    34  28  79 S22G28    29.68F WCI  22
$$

IAZ001>003-012>014-020>022-031-032-NEZ013-014-SDZ071-170900-
NORTHWEST IOWA

CITY           SKY/WX    TMP DP  RH WIND       PRES   REMARKS
CHEROKEE       CLOUDY    40  31  71 S10       29.77S
DENISON        CLOUDY    41  30  65 S18G29    29.78F
ESTHERVILLE    CLOUDY    33  29  85 SE18G24   29.79F WCI  22
LE MARS        CLOUDY    43  30  61 S23G30    29.70F
ORANGE CITY    CLOUDY    39  30  70 S12G17    29.70F
SHELDON        CLOUDY    39  28  65 S22       29.70F
SIOUX CITY     CLOUDY    39  30  70 SE14      29.73F
SPENCER        CLOUDY    35  28  75 SE16      29.77F WCI  25
STORM LAKE     CLOUDY    37  30  75 S14       29.78F
$$

ABBREVIATIONS USED IN REMARKS
   TC - TEMPERATURE IN CELSIUS
  WCI - WIND CHILL INDEX
   HX - HEAT INDEX
  VSB - VISIBILITY





USA.gov is the U.S. government's official web portal to all federal, state and local government web resources and services.